Regional Weather Roundup
Issued by NWS Charleston, WV

Home | Current Version | Previous Version | Graphics & Text | Print | Product List | Glossary On
Versions: 1 2 3 4 5 6 7 8 9 10 11 12 13 14 15 16 17 18 19 20 21 22 23 24 25 26 27 28 29 30 31 32 33 34 35 36 37 38 39 40 41 42 43 44 45 46 47 48 49 50
000
ASUS41 KRLX 272110
RWRRLX
West Virginia Regional Weather Roundup
National Weather Service Charleston WV
400 PM EST THU NOV 27 2014

Note: "fair" indicates few or no clouds below 12,000 feet with no
significant weather and/or obstructions to visibility.

WVZ003-272200-
Northern Panhandle of West Virginia

CITY           SKY/WX    TMP DP  RH WIND       PRES   REMARKS
WHEELING       LGT SNOW  30  27  88 W9        30.15R VSB 1
$$

WVZ009-272200-
Northwest West Virginia

CITY           SKY/WX    TMP DP  RH WIND       PRES   REMARKS
PARKERSBURG    LGT SNOW  32  26  78 NW13      30.24R
$$

WVZ006-272200-
Western West Virginia

CITY           SKY/WX    TMP DP  RH WIND       PRES   REMARKS
HUNTINGTON     CLOUDY    33  23  66 W8        30.26R
$$

WVZ015-272200-
West Central West Virginia

CITY           SKY/WX    TMP DP  RH WIND       PRES   REMARKS
CHARLESTON     FLURRIES  33  23  66 W10G23    30.23R
$$

WVZ022-031-272200-
North Central West Virginia

CITY           SKY/WX    TMP DP  RH WIND       PRES   REMARKS
CLARKSBURG     LGT SNOW  32  29  88 W8        30.14R FOG
MORGANTOWN     CLOUDY    34  24  67 W9        30.12R
$$

WVZ025-035-042-045-272200-
Southern West Virginia

CITY           SKY/WX    TMP DP  RH WIND       PRES   REMARKS
BECKLEY        CLOUDY    28  21  75 NW12      30.13R
LOGAN          MIX PCPN  30  23  74 VRB5G12   30.21R
BLUEFIELD      CLOUDY    29  23  78 NW14G21   30.12R
LEWISBURG      FLURRIES  32  23  70 NW9G16    30.12R
$$

WVZ047-272200-
Northern Mountains of West Virginia

CITY           SKY/WX    TMP DP  RH WIND       PRES   REMARKS
ELKINS         LGT SNOW  30  26  85 W12       30.11R FOG
$$

WVZ052-272200-
Eastern Panhandle of West Virginia

CITY           SKY/WX    TMP DP  RH WIND       PRES   REMARKS
MARTINSBURG    MOCLDY    40  25  55 NW5       30.07R
PETERSBURG     CLOUDY    37  27  68 NW9       30.11R
$$


USA.gov is the U.S. government's official web portal to all federal, state and local government web resources and services.